Hourly Weather Veliko Tarnovo

Today, 3 July, Friday

Time Temperature Precipitation Wind Pressure Humidity
00:00 +21°C° 0 mm 2 mps 735 mmHg 82%
01:00 +21°C° 0 mm 2 mps 735 mmHg 80%
02:00 +20°C° 0 mm 2 mps 735 mmHg 73%
03:00 +21°C° 0 mm 1 mps 735 mmHg 72%
04:00 +21°C° 0 mm 1 mps 735 mmHg 71%
05:00 +20°C° 0 mm 1 mps 735 mmHg 70%
06:00 +22°C° 0 mm 1 mps 735 mmHg 66%
07:00 +24°C° 0 mm 1 mps 735 mmHg 63%
08:00 +24°C° 0 mm 0 mps 736 mmHg 59%
09:00 +28°C° 0 mm 1 mps 736 mmHg 57%
10:00 +29°C° 0 mm 1 mps 735 mmHg 54%
11:00 +30°C° 0 mm 1 mps 735 mmHg 52%
12:00 +31°C° 0.1 mm 1 mps 735 mmHg 51%
13:00 +32°C° 0.1 mm 1 mps 735 mmHg 49%
14:00 +32°C° 0.1 mm 1 mps 735 mmHg 48%
15:00 +32°C° 0.1 mm 1 mps 735 mmHg 50%
16:00 +32°C° 0.1 mm 1 mps 735 mmHg 51%
17:00 +31°C° 0.1 mm 1 mps 734 mmHg 53%
18:00 +30°C° 0 mm 1 mps 734 mmHg 60%
19:00 +28°C° 0 mm 1 mps 734 mmHg 66%
20:00 +26°C° 0 mm 1 mps 734 mmHg 73%
21:00 +25°C° 0 mm 1 mps 735 mmHg 74%
22:00 +25°C° 0 mm 1 mps 735 mmHg 75%
23:00 +24°C° 0 mm 1 mps 736 mmHg 76%

Tomorrow, 4 July, Saturday

Time Temperature Precipitation Wind Pressure Humidity
00:00 +24°C° 0.2 mm 1 mps 736 mmHg 78%
01:00 +23°C° 0.2 mm 1 mps 735 mmHg 80%
02:00 +23°C° 0.2 mm 1 mps 735 mmHg 82%
03:00 +22°C° 0 mm 1 mps 736 mmHg 84%
04:00 +22°C° 0 mm 1 mps 736 mmHg 86%
05:00 +22°C° 0 mm 1 mps 736 mmHg 88%
06:00 +23°C° 0 mm 2 mps 736 mmHg 84%
07:00 +24°C° 0 mm 2 mps 736 mmHg 79%
08:00 +26°C° 0 mm 3 mps 736 mmHg 75%
09:00 +27°C° 0 mm 3 mps 736 mmHg 70%
10:00 +28°C° 0 mm 3 mps 737 mmHg 66%
11:00 +29°C° 0 mm 3 mps 737 mmHg 61%
12:00 +30°C° 0.2 mm 2 mps 736 mmHg 58%
13:00 +31°C° 0.2 mm 2 mps 736 mmHg 55%
14:00 +31°C° 0.2 mm 2 mps 736 mmHg 53%
15:00 +31°C° 0.3 mm 1 mps 736 mmHg 54%
16:00 +31°C° 0.3 mm 1 mps 735 mmHg 55%
17:00 +31°C° 0.3 mm 1 mps 735 mmHg 56%
18:00 +29°C° 0.3 mm 1 mps 735 mmHg 61%
19:00 +28°C° 0.3 mm 1 mps 735 mmHg 66%
20:00 +26°C° 0.3 mm 1 mps 735 mmHg 71%
21:00 +25°C° 0.2 mm 1 mps 735 mmHg 73%
22:00 +25°C° 0.2 mm 1 mps 736 mmHg 76%
23:00 +24°C° 0.2 mm 1 mps 736 mmHg 78%

Day after tomorrow, 5 July, Sunday

Time Temperature Precipitation Wind Pressure Humidity
00:00 +23°C° 0.9 mm 1 mps 736 mmHg 82%
01:00 +23°C° 0.9 mm 1 mps 736 mmHg 86%
02:00 +22°C° 0.9 mm 1 mps 736 mmHg 90%
03:00 +22°C° 1 mm 1 mps 736 mmHg 91%
04:00 +22°C° 1 mm 1 mps 736 mmHg 92%
05:00 +21°C° 1 mm 1 mps 736 mmHg 93%
06:00 +22°C° 0.3 mm 1 mps 736 mmHg 91%
07:00 +23°C° 0.3 mm 1 mps 736 mmHg 89%
08:00 +23°C° 0.3 mm 2 mps 736 mmHg 88%
09:00 +24°C° 0.1 mm 2 mps 736 mmHg 84%
10:00 +25°C° 0.1 mm 2 mps 736 mmHg 81%
11:00 +26°C° 0.1 mm 2 mps 736 mmHg 78%
12:00 +26°C° 0 mm 2 mps 736 mmHg 75%
13:00 +27°C° 0 mm 1 mps 736 mmHg 71%
14:00 +28°C° 0 mm 1 mps 736 mmHg 68%
15:00 +28°C° 0.4 mm 1 mps 735 mmHg 68%
16:00 +28°C° 0.4 mm 1 mps 735 mmHg 68%
17:00 +28°C° 0.4 mm 2 mps 735 mmHg 68%
18:00 +27°C° 0.3 mm 1 mps 735 mmHg 74%
19:00 +25°C° 0.3 mm 1 mps 735 mmHg 80%
20:00 +24°C° 0.3 mm 1 mps 735 mmHg 85%
21:00 +23°C° 0.2 mm 1 mps 735 mmHg 87%
22:00 +23°C° 0.2 mm 1 mps 735 mmHg 88%
23:00 +22°C° 0.2 mm 1 mps 736 mmHg 90%

6 July, Monday

Time Temperature Precipitation Wind Pressure Humidity
00:00 +22°C° 0.1 mm 1 mps 735 mmHg 91%
01:00 +21°C° 0.1 mm 1 mps 735 mmHg 92%
02:00 +21°C° 0.1 mm 1 mps 735 mmHg 93%
03:00 +21°C° 0 mm 1 mps 735 mmHg 94%
04:00 +21°C° 0 mm 1 mps 735 mmHg 95%
05:00 +20°C° 0 mm 1 mps 735 mmHg 96%
06:00 +22°C° 0 mm 1 mps 735 mmHg 93%
07:00 +23°C° 0 mm 1 mps 735 mmHg 90%
08:00 +24°C° 0 mm 1 mps 735 mmHg 88%
09:00 +25°C° 0 mm 1 mps 735 mmHg 84%
10:00 +26°C° 0 mm 1 mps 735 mmHg 80%
11:00 +27°C° 0 mm 1 mps 735 mmHg 76%
12:00 +28°C° 0.1 mm 1 mps 734 mmHg 71%
13:00 +29°C° 0.1 mm 1 mps 734 mmHg 66%
14:00 +30°C° 0.1 mm 1 mps 733 mmHg 61%
15:00 +30°C° 0.1 mm 1 mps 733 mmHg 61%
16:00 +31°C° 0.1 mm 2 mps 733 mmHg 60%
17:00 +31°C° 0.1 mm 2 mps 733 mmHg 60%
18:00 +29°C° 0 mm 2 mps 733 mmHg 66%
19:00 +27°C° 0 mm 1 mps 733 mmHg 72%
20:00 +25°C° 0 mm 1 mps 733 mmHg 78%
21:00 +25°C° 0 mm 1 mps 733 mmHg 79%
22:00 +24°C° 0 mm 1 mps 733 mmHg 81%
23:00 +23°C° 0 mm 1 mps 733 mmHg 83%

7 July, Tuesday

Time Temperature Precipitation Wind Pressure Humidity
00:00 +23°C° 0 mm 1 mps 733 mmHg 84%
01:00 +23°C° 0 mm 1 mps 733 mmHg 85%
02:00 +22°C° 0 mm 1 mps 732 mmHg 87%
03:00 +22°C° 0 mm 1 mps 732 mmHg 88%
04:00 +22°C° 0 mm 1 mps 732 mmHg 89%
05:00 +21°C° 0 mm 1 mps 732 mmHg 90%
06:00 +23°C° 0 mm 1 mps 732 mmHg 85%
07:00 +25°C° 0 mm 1 mps 733 mmHg 80%
08:00 +26°C° 0 mm 1 mps 733 mmHg 75%
09:00 +27°C° 0.3 mm 1 mps 733 mmHg 71%
10:00 +29°C° 0.3 mm 2 mps 733 mmHg 67%
11:00 +30°C° 0.3 mm 2 mps 733 mmHg 62%
12:00 +30°C° 0.5 mm 2 mps 733 mmHg 61%
13:00 +31°C° 0.5 mm 2 mps 733 mmHg 59%
14:00 +31°C° 0.5 mm 2 mps 733 mmHg 57%
15:00 +30°C° 0.7 mm 3 mps 733 mmHg 62%
16:00 +29°C° 0.7 mm 3 mps 733 mmHg 66%
17:00 +29°C° 0.7 mm 4 mps 733 mmHg 71%
18:00 +27°C° 2.1 mm 4 mps 733 mmHg 77%
19:00 +25°C° 2.1 mm 4 mps 734 mmHg 83%
20:00 +22°C° 2.1 mm 4 mps 734 mmHg 90%
21:00 +22°C° 1.1 mm 3 mps 735 mmHg 90%
22:00 +21°C° 1.1 mm 2 mps 736 mmHg 91%
23:00 +21°C° 1.1 mm 2 mps 736 mmHg 92%

8 July, Wednesday

Time Temperature Precipitation Wind Pressure Humidity
00:00 +20°C° 0 mm 2 mps 736 mmHg 92%
01:00 +20°C° 0 mm 2 mps 736 mmHg 92%
02:00 +19°C° 0 mm 2 mps 736 mmHg 93%
03:00 +19°C° 0 mm 2 mps 737 mmHg 93%
04:00 +19°C° 0 mm 1 mps 737 mmHg 93%
05:00 +19°C° 0 mm 1 mps 737 mmHg 93%
06:00 +18°C° 0 mm 2 mps 737 mmHg 89%
07:00 +19°C° 0 mm 2 mps 738 mmHg 85%
08:00 +20°C° 0 mm 2 mps 738 mmHg 81%
09:00 +21°C° 0 mm 2 mps 738 mmHg 78%
10:00 +21°C° 0 mm 2 mps 739 mmHg 74%
11:00 +23°C° 0 mm 2 mps 739 mmHg 71%
12:00 +23°C° 0 mm 2 mps 739 mmHg 70%
13:00 +24°C° 0 mm 3 mps 739 mmHg 70%
14:00 +24°C° 0 mm 3 mps 739 mmHg 69%
15:00 +24°C° 0 mm 3 mps 738 mmHg 71%
16:00 +22°C° 0 mm 3 mps 738 mmHg 72%
17:00 +22°C° 0 mm 3 mps 738 mmHg 74%
18:00 +21°C° 0 mm 2 mps 738 mmHg 76%
19:00 +21°C° 0 mm 1 mps 738 mmHg 79%
20:00 +20°C° 0 mm 1 mps 739 mmHg 82%
21:00 +20°C° 0 mm 1 mps 739 mmHg 82%
22:00 +20°C° 0 mm 1 mps 739 mmHg 82%
23:00 +20°C° 0 mm 1 mps 740 mmHg 82%
Show more